• In Russia
  • List of Countries
  • For 7 days
  • Water Temperature
  • Satellite Maps
  • Weather Map
  • Weather Widgets
  • user-avatar
    Login

    Hourly Weather Makadi Bey

    Today, 23 January, Wednesday

    Time Temperature Precipitation Wind Pressure Humidity
    00:00 +11°C° 0 mm 0 mps 706 mmHg 27%
    01:00 +11°C° 0 mm 0 mps 706 mmHg 28%
    02:00 +12°C° 0 mm 1 mps 706 mmHg 34%
    03:00 +12°C° 0 mm 1 mps 706 mmHg 37%
    04:00 +11°C° 0 mm 1 mps 705 mmHg 39%
    05:00 +11°C° 0 mm 1 mps 705 mmHg 42%
    06:00 +12°C° 0 mm 1 mps 706 mmHg 40%
    07:00 +14°C° 0 mm 1 mps 706 mmHg 37%
    08:00 +16°C° 0 mm 1 mps 707 mmHg 34%
    09:00 +18°C° 0 mm 1 mps 707 mmHg 30%
    10:00 +20°C° 0 mm 1 mps 707 mmHg 26%
    11:00 +22°C° 0 mm 1 mps 707 mmHg 22%
    12:00 +23°C° 0 mm 2 mps 707 mmHg 19%
    13:00 +24°C° 0 mm 2 mps 707 mmHg 16%
    14:00 +22°C° 0 mm 3 mps 706 mmHg 21%
    15:00 +23°C° 0 mm 2 mps 706 mmHg 20%
    16:00 +21°C° 0 mm 2 mps 706 mmHg 19%
    17:00 +21°C° 0 mm 2 mps 706 mmHg 17%
    18:00 +20°C° 0 mm 1 mps 705 mmHg 20%
    19:00 +18°C° 0 mm 1 mps 705 mmHg 23%
    20:00 +14°C° 0 mm 0 mps 705 mmHg 26%
    21:00 +13°C° 0 mm 0 mps 705 mmHg 26%
    22:00 +13°C° 0 mm 0 mps 705 mmHg 26%
    23:00 +14°C° 0 mm 1 mps 705 mmHg 27%

    Tomorrow, 24 January, Thursday

    Time Temperature Precipitation Wind Pressure Humidity
    00:00 +13°C° 0 mm 1 mps 705 mmHg 26%
    01:00 +13°C° 0 mm 1 mps 705 mmHg 24%
    02:00 +13°C° 0 mm 1 mps 705 mmHg 23%
    03:00 +13°C° 0 mm 1 mps 705 mmHg 21%
    04:00 +13°C° 0 mm 1 mps 705 mmHg 18%
    05:00 +13°C° 0 mm 1 mps 705 mmHg 16%
    06:00 +15°C° 0 mm 1 mps 705 mmHg 14%
    07:00 +16°C° 0 mm 1 mps 705 mmHg 12%
    08:00 +18°C° 0 mm 1 mps 705 mmHg 10%
    09:00 +21°C° 0 mm 1 mps 706 mmHg 10%
    10:00 +23°C° 0 mm 2 mps 706 mmHg 10%
    11:00 +25°C° 0 mm 3 mps 707 mmHg 11%
    12:00 +26°C° 0 mm 4 mps 707 mmHg 11%
    13:00 +27°C° 0 mm 4 mps 706 mmHg 10%
    14:00 +28°C° 0 mm 5 mps 706 mmHg 10%
    15:00 +27°C° 0 mm 4 mps 706 mmHg 10%
    16:00 +25°C° 0 mm 4 mps 706 mmHg 10%
    17:00 +24°C° 0 mm 3 mps 705 mmHg 10%
    18:00 +23°C° 0 mm 2 mps 705 mmHg 10%
    19:00 +20°C° 0 mm 2 mps 706 mmHg 10%
    20:00 +18°C° 0 mm 2 mps 706 mmHg 11%
    21:00 +19°C° 0 mm 1 mps 706 mmHg 9%
    22:00 +18°C° 0 mm 1 mps 706 mmHg 7%
    23:00 +18°C° 0 mm 1 mps 706 mmHg 5%

    Day after tomorrow, 25 January, Friday

    Time Temperature Precipitation Wind Pressure Humidity
    00:00 +18°C° 0 mm 1 mps 706 mmHg 5%
    01:00 +16°C° 0 mm 1 mps 705 mmHg 4%
    02:00 +15°C° 0 mm 0 mps 705 mmHg 4%
    03:00 +15°C° 0 mm 0 mps 705 mmHg 7%
    04:00 +14°C° 0 mm 0 mps 705 mmHg 10%
    05:00 +14°C° 0 mm 0 mps 705 mmHg 13%
    06:00 +15°C° 0 mm 0 mps 705 mmHg 16%
    07:00 +16°C° 0 mm 0 mps 706 mmHg 19%
    08:00 +17°C° 0 mm 0 mps 706 mmHg 22%
    09:00 +21°C° 0 mm 1 mps 707 mmHg 19%
    10:00 +23°C° 0 mm 1 mps 707 mmHg 17%
    11:00 +25°C° 0 mm 1 mps 707 mmHg 14%
    12:00 +25°C° 0 mm 1 mps 707 mmHg 14%
    13:00 +26°C° 0 mm 2 mps 707 mmHg 13%
    14:00 +27°C° 0 mm 2 mps 706 mmHg 12%
    15:00 +26°C° 0 mm 2 mps 706 mmHg 15%
    16:00 +25°C° 0 mm 1 mps 705 mmHg 17%
    17:00 +24°C° 0 mm 1 mps 705 mmHg 20%
    18:00 +23°C° 0 mm 1 mps 705 mmHg 26%
    19:00 +22°C° 0 mm 1 mps 705 mmHg 33%
    20:00 +21°C° 0 mm 1 mps 705 mmHg 40%
    21:00 +20°C° 0 mm 1 mps 705 mmHg 43%
    22:00 +20°C° 0 mm 1 mps 705 mmHg 46%
    23:00 +20°C° 0 mm 1 mps 705 mmHg 50%

    26 January, Saturday

    Time Temperature Precipitation Wind Pressure Humidity
    00:00 +19°C° 0 mm 1 mps 704 mmHg 50%
    01:00 +19°C° 0 mm 1 mps 704 mmHg 51%
    02:00 +19°C° 0 mm 1 mps 704 mmHg 52%
    03:00 +18°C° 0 mm 1 mps 703 mmHg 53%
    04:00 +15°C° 0 mm 0 mps 703 mmHg 54%
    05:00 +15°C° 0 mm 0 mps 702 mmHg 55%
    06:00 +16°C° 0 mm 0 mps 703 mmHg 48%
    07:00 +18°C° 0 mm 0 mps 704 mmHg 40%
    08:00 +19°C° 0 mm 0 mps 704 mmHg 33%
    09:00 +23°C° 0 mm 1 mps 705 mmHg 27%
    10:00 +25°C° 0 mm 1 mps 705 mmHg 21%
    11:00 +27°C° 0 mm 2 mps 705 mmHg 15%
    12:00 +28°C° 0 mm 2 mps 705 mmHg 14%
    13:00 +28°C° 0 mm 3 mps 704 mmHg 13%
    14:00 +29°C° 0 mm 3 mps 704 mmHg 12%
    15:00 +28°C° 0 mm 3 mps 704 mmHg 13%
    16:00 +27°C° 0 mm 3 mps 704 mmHg 14%
    17:00 +26°C° 0 mm 2 mps 704 mmHg 14%
    18:00 +25°C° 0 mm 2 mps 704 mmHg 15%
    19:00 +23°C° 0 mm 2 mps 704 mmHg 16%
    20:00 +21°C° 0 mm 2 mps 704 mmHg 16%
    21:00 +20°C° 0 mm 2 mps 704 mmHg 15%
    22:00 +19°C° 0 mm 2 mps 704 mmHg 13%
    23:00 +19°C° 0 mm 2 mps 704 mmHg 11%

    27 January, Sunday

    Time Temperature Precipitation Wind Pressure Humidity
    00:00 +18°C° 0 mm 2 mps 704 mmHg 11%
    01:00 +18°C° 0 mm 1 mps 704 mmHg 12%
    02:00 +18°C° 0 mm 1 mps 703 mmHg 13%
    03:00 +16°C° 0 mm 1 mps 703 mmHg 14%
    04:00 +16°C° 0 mm 1 mps 703 mmHg 14%
    05:00 +15°C° 0 mm 1 mps 703 mmHg 15%
    06:00 +16°C° 0 mm 1 mps 704 mmHg 14%
    07:00 +18°C° 0 mm 1 mps 704 mmHg 13%
    08:00 +18°C° 0 mm 2 mps 705 mmHg 12%
    09:00 +19°C° 0 mm 2 mps 705 mmHg 12%
    10:00 +20°C° 0 mm 2 mps 705 mmHg 12%
    11:00 +22°C° 0 mm 3 mps 706 mmHg 11%
    12:00 +21°C° 0 mm 3 mps 705 mmHg 12%
    13:00 +21°C° 0 mm 4 mps 705 mmHg 13%
    14:00 +21°C° 0 mm 5 mps 704 mmHg 14%
    15:00 +21°C° 0 mm 4 mps 704 mmHg 15%
    16:00 +20°C° 0 mm 4 mps 704 mmHg 16%
    17:00 +19°C° 0 mm 4 mps 704 mmHg 17%
    18:00 +18°C° 0 mm 4 mps 705 mmHg 17%
    19:00 +17°C° 0 mm 3 mps 705 mmHg 17%
    20:00 +17°C° 0 mm 3 mps 705 mmHg 17%
    21:00 +14°C° 0 mm 3 mps 706 mmHg 18%
    22:00 +13°C° 0 mm 3 mps 706 mmHg 18%
    23:00 +12°C° 0 mm 3 mps 706 mmHg 19%

    28 January, Monday

    Time Temperature Precipitation Wind Pressure Humidity
    00:00 +12°C° 0 mm 3 mps 706 mmHg 20%
    01:00 +11°C° 0 mm 3 mps 706 mmHg 22%
    02:00 +10°C° 0 mm 3 mps 706 mmHg 24%
    03:00 +9°C° 0 mm 3 mps 706 mmHg 26%
    04:00 +9°C° 0 mm 3 mps 706 mmHg 28%
    05:00 +8°C° 0 mm 3 mps 706 mmHg 30%
    06:00 +9°C° 0 mm 3 mps 707 mmHg 30%
    07:00 +9°C° 0 mm 3 mps 707 mmHg 29%
    08:00 +10°C° 0 mm 3 mps 708 mmHg 28%
    09:00 +11°C° 0 mm 4 mps 709 mmHg 25%
    10:00 +13°C° 0 mm 5 mps 709 mmHg 21%
    11:00 +14°C° 0 mm 6 mps 709 mmHg 17%
    12:00 +15°C° 0 mm 6 mps 709 mmHg 16%
    13:00 +16°C° 0 mm 5 mps 709 mmHg 14%
    14:00 +17°C° 0 mm 5 mps 709 mmHg 12%
    15:00 +17°C° 0 mm 4 mps 709 mmHg 12%
    16:00 +17°C° 0 mm 3 mps 709 mmHg 13%
    17:00 +16°C° 0 mm 2 mps 709 mmHg 13%
    18:00 +15°C° 0 mm 2 mps 709 mmHg 17%
    19:00 +13°C° 0 mm 1 mps 709 mmHg 21%
    20:00 +11°C° 0 mm 1 mps 709 mmHg 25%
    21:00 +11°C° 0 mm 1 mps 709 mmHg 28%
    22:00 +10°C° 0 mm 1 mps 709 mmHg 31%
    23:00 +10°C° 0 mm 1 mps 709 mmHg 34%
    Show more